[[{"header":{"parameterUnit":"m.s-1","parameterCategory":1,"la1":30.2991,"la2":30.254,"lo1":-89.0895,"lo2":-89.0444,"dy":0.0017,"dx":0.0017,"nx":28,"ny":28,"refTime":"2025-06-22T09:00:00:Z","depth":0,"parameterNumber":2,"parameterNumberName":"U-component_of_WINDS"},"data":[0,0,0,0,0,0,0,0,0,0,0,0,0,0,0,0,0,0,0,0,0,0,0,0,0,0,0,0,0,0,0,0,0,0,0,0,0,0,0,0,0,0,0,0,0,0,0,0,0,0,0,0,0,0,0,0,0,0,-2.5251,-2.5251,0,-2.5204,-2.5203,-2.5203,-2.5123,-2.5121,-2.512,-2.5119,-2.507,-2.507,-2.5071,0,0,0,0,0,0,0,0,0,0,0,0,0,-2.5276,-2.5276,-2.5251,-2.5251,-2.525,-2.5204,-2.5203,-2.5203,-2.5123,-2.5121,-2.512,-2.5118,-2.507,-2.507,-2.5071,0,0,0,0,0,0,0,0,0,0,0,0,0,-2.525,-2.5276,-2.5251,-2.5205,-2.52,-2.5204,-2.5203,-2.5202,-2.5124,-2.5121,-2.5119,-2.5117,-2.507,-2.507,-2.5071,-2.5116,0,0,-2.5071,-2.5071,0,0,0,0,0,0,0,0,-2.5252,-2.525,-2.5212,-2.5208,-2.5203,-2.5167,-2.5194,-2.5173,-2.5124,-2.5153,-2.5118,-2.5116,-2.5104,-2.5102,-2.5098,-2.5114,-2.5112,-2.5071,-2.5071,-2.5071,-2.5071,0,0,0,0,0,0,0,-2.5254,-2.5251,-2.5232,-2.5212,-2.5206,-2.5187,-2.5181,-2.519,-2.5142,-2.515,-2.5144,-2.514,-2.5101,-2.5098,-2.5096,-2.5111,-2.5071,-2.5071,-2.5071,-2.5071,-2.5164,-2.5167,0,0,0,0,0,0,-2.5262,-2.5253,-2.5234,-2.5231,-2.5222,-2.5189,-2.5182,-2.5181,-2.5141,-2.5133,-2.5142,-2.5136,-2.5098,-2.5096,-2.5094,-2.5145,-2.5071,-2.5071,-2.5071,-2.5162,-2.5165,-2.5168,0,0,0,0,0,0,-2.5263,-2.5261,-2.5236,-2.5241,-2.5236,-2.5191,-2.519,-2.5181,-2.5177,-2.5135,-2.5126,-2.5146,-2.5097,-2.5094,-2.5112,-2.5142,-2.5071,-2.5072,-2.5159,-2.5163,-2.5166,-2.5248,0,0,0,0,0,0,-2.5264,-2.5262,-2.5278,-2.5241,-2.5236,-2.5254,-2.5192,-2.5182,-2.5177,-2.517,-2.5137,-2.5129,-2.5095,-2.5112,-2.5112,-2.5141,-2.5072,-2.5156,-2.5161,-2.5165,-2.5242,-2.5254,-2.5264,0,0,0,0,0,-2.5265,-2.5302,-2.5279,-2.5277,-2.5255,-2.5256,-2.5252,-2.5211,-2.518,-2.5196,-2.517,-2.513,-2.514,-2.5114,-2.5114,-2.5144,-2.5154,-2.516,-2.5165,-2.5237,-2.5251,-2.5263,0,0,0,0,0,0,-2.5343,-2.5297,-2.527,-2.5297,-2.5281,-2.5242,-2.5261,-2.5227,-2.522,-2.5213,-2.5163,-2.5156,-2.5181,-2.5164,-2.5137,-2.5187,-2.5141,-2.5146,-2.5196,-2.5209,-2.522,-2.5223,-2.5072,0,0,0,0,0,-2.5363,-2.5367,-2.5327,-2.5354,-2.5348,-2.5306,-2.5305,-2.5275,-2.5257,-2.5249,-2.5224,-2.5208,-2.5207,-2.5208,-2.5204,-2.524,-2.5232,-2.5261,-2.5272,-2.5281,-2.5286,-2.5305,-2.5317,-2.5185,-2.5185,-2.5185,0,0,-2.5405,-2.538,-2.5386,-2.5369,-2.5353,-2.5359,-2.5301,-2.5309,-2.5313,-2.5251,-2.5266,-2.5247,-2.5226,-2.5254,-2.5265,-2.5241,-2.5321,-2.5288,-2.5295,-2.5295,-2.5312,-2.5324,-2.5335,-2.5189,-2.5188,-2.5188,0,0,-2.5484,-2.5465,-2.5486,-2.5473,-2.545,-2.5422,-2.5428,-2.5395,-2.538,-2.5395,-2.5349,-2.5354,-2.5354,-2.5341,-2.5334,-2.5413,-2.5377,-2.5414,-2.5469,-2.5488,-2.5499,-2.5508,-2.5536,-2.5547,-2.5419,-2.5419,-2.5419,0,-2.5538,-2.5545,-2.5502,-2.5514,-2.5508,-2.5453,-2.5475,-2.5464,-2.5441,-2.544,-2.5413,-2.5413,-2.5395,-2.5419,-2.5439,-2.5436,-2.5441,-2.5416,-2.5501,-2.5509,-2.5517,-2.5543,-2.5554,-2.5424,-2.5423,-2.5423,-2.5422,0,-2.5613,-2.5619,-2.5639,-2.562,-2.5617,-2.5634,-2.5595,-2.5597,-2.5569,-2.5545,-2.5562,-2.5539,-2.5532,-2.5536,-2.5507,-2.5557,-2.5543,-2.551,-2.5462,-2.5535,-2.5559,-2.5569,-2.543,-2.5429,-2.5427,-2.5426,0,0,-2.5736,-2.5695,-2.5703,-2.5694,-2.5667,-2.5671,-2.5687,-2.5679,-2.5683,-2.5671,-2.5683,-2.5686,-2.5656,-2.5649,-2.5619,-2.5636,-2.5701,-2.5601,-2.56,-2.562,-2.5755,-2.578,-2.5792,-2.5678,-2.568,-2.5681,-2.5757,0,-2.5809,-2.5832,-2.5796,-2.5828,-2.5833,-2.5783,-2.5797,-2.5782,-2.5761,-2.5764,-2.5741,-2.5744,-2.5703,-2.5699,-2.5714,-2.569,-2.5727,-2.5684,-2.5689,-2.569,-2.5695,-2.5804,-2.5829,-2.5902,-2.5766,-2.5767,-2.5769,0,-2.5895,-2.5888,-2.5921,-2.5894,-2.5895,-2.5908,-2.5899,-2.5902,-2.5886,-2.5869,-2.5864,-2.5829,-2.5844,-2.58,-2.5821,-2.5792,-2.5793,-2.5782,-2.5784,-2.5781,-2.5732,-2.5804,-2.5924,-2.5935,-2.5783,-2.5782,-2.5781,0,-2.5982,-2.5981,-2.6,-2.5995,-2.5963,-2.5974,-2.5961,-2.5943,-2.5941,-2.5935,-2.5934,-2.5929,-2.5926,-2.5924,-2.5891,-2.5862,-2.5916,-2.5868,-2.5903,-2.5904,-2.5915,-2.5914,-2.6035,-2.5917,-2.5917,-2.5917,-2.5917,0,-2.6066,-2.6088,-2.6039,-2.6051,-2.6075,-2.6034,-2.606,-2.6042,-2.6027,-2.6035,-2.5992,-2.6002,-2.5957,-2.5962,-2.5936,-2.5958,-2.5957,-2.5945,-2.5937,-2.5948,-2.5949,-2.5946,-2.594,-2.592,-2.5919,-2.5919,-2.5918,0,-2.6165,-2.6133,-2.6152,-2.6122,-2.6115,-2.6134,-2.6108,-2.6119,-2.6097,-2.6109,-2.6109,-2.6074,-2.6078,-2.6045,-2.6042,-2.6025,-2.6059,-2.6043,-2.6064,-2.6059,-2.6095,-2.6092,-2.6217,-2.6232,-2.6106,-2.6107,-2.6108,0,-2.622,-2.6236,-2.6209,-2.6211,-2.6201,-2.6206,-2.6205,-2.6167,-2.6168,-2.6152,-2.6165,-2.6166,-2.6164,-2.6173,-2.6148,-2.6147,-2.613,-2.6174,-2.6129,-2.614,-2.6131,-2.613,-2.6131,-2.6183,-2.6185,-2.6186,-2.6187,0,-2.6321,-2.6306,-2.6305,-2.6301,-2.6301,-2.6296,-2.6288,-2.6293,-2.6251,-2.6255,-2.6259,-2.6258,-2.6256,-2.6258,-2.6252,-2.624,-2.6207,-2.6202,-2.621,-2.622,-2.6231,-2.6226,-2.6089,-2.6199,-2.6197,-2.6197,-2.6196,-2.6195,-2.64,-2.6412,-2.6395,-2.6398,-2.6388,-2.6382,-2.6391,-2.6371,-2.6373,-2.6368,-2.6346,-2.6355,-2.634,-2.6329,-2.6321,-2.6328,-2.6306,-2.6318,-2.632,-2.6324,-2.633,-2.6232,-2.6327,-2.6326,-2.6326,-2.6326,-2.6325,0,-2.6499,-2.6486,-2.6488,-2.6479,-2.6481,-2.6451,-2.6441,-2.6445,-2.6453,-2.6443,-2.6443,-2.6448,-2.645,-2.6427,-2.6426,-2.6436,-2.6421,-2.6437,-2.6435,-2.6434,-2.6349,-2.6342,-2.6449,-2.6449,-2.6449,-2.6449,-2.6449,-2.6449,-2.655,-2.657,-2.6553,-2.6568,-2.6555,-2.6563,-2.656,-2.6555,-2.6547,-2.6555,-2.6557,-2.6542,-2.6526,-2.6525,-2.6526,-2.6519,-2.6521,-2.6542,-2.653,-2.6451,-2.6439,-2.6428,-2.6421,-2.6543,-2.6543,-2.6614,-2.6614,-2.6615]},{"header":{"parameterUnit":"m.s-1","parameterCategory":1,"la1":30.2991,"la2":30.254,"lo1":-89.0895,"lo2":-89.0444,"dy":0.0017,"dx":0.0017,"nx":28,"ny":28,"refTime":"2025-06-22T09:00:00:Z","depth":0,"parameterNumber":3,"parameterNumberName":"V-component_of_WINDS"},"data":[0,0,0,0,0,0,0,0,0,0,0,0,0,0,0,0,0,0,0,0,0,0,0,0,0,0,0,0,0,0,0,0,0,0,0,0,0,0,0,0,0,0,0,0,0,0,0,0,0,0,0,0,0,0,0,0,0,0,3.3663,3.3663,0,3.3688,3.3689,3.3689,3.3742,3.3743,3.3744,3.3745,3.3767,3.3767,3.3766,0,0,0,0,0,0,0,0,0,0,0,0,0,3.3656,3.3656,3.3662,3.3663,3.3663,3.3688,3.3689,3.3689,3.3742,3.3743,3.3744,3.3745,3.3767,3.3767,3.3766,0,0,0,0,0,0,0,0,0,0,0,0,0,3.3668,3.3656,3.3662,3.3693,3.3696,3.3688,3.3689,3.3689,3.3741,3.3743,3.3745,3.3746,3.3767,3.3767,3.3766,3.373,0,0,3.3764,3.3764,0,0,0,0,0,0,0,0,3.3667,3.3668,3.3688,3.369,3.3694,3.3714,3.3694,3.3703,3.3741,3.3724,3.3745,3.3747,3.3748,3.3749,3.375,3.3731,3.3732,3.3764,3.3764,3.3763,3.3763,0,0,0,0,0,0,0,3.3666,3.3667,3.3673,3.3688,3.3692,3.3704,3.3707,3.3696,3.3726,3.3725,3.3729,3.3732,3.375,3.375,3.3751,3.3732,3.3764,3.3764,3.3763,3.3763,3.3686,3.3684,0,0,0,0,0,0,3.3661,3.3666,3.3672,3.3673,3.3684,3.3703,3.3706,3.3705,3.3727,3.3731,3.373,3.3734,3.3751,3.3751,3.3752,3.3711,3.3763,3.3763,3.3763,3.3687,3.3685,3.3683,0,0,0,0,0,0,3.3661,3.3661,3.3671,3.3671,3.3673,3.3701,3.3699,3.3705,3.3706,3.373,3.3736,3.3726,3.3752,3.3753,3.3735,3.3712,3.3763,3.3762,3.3689,3.3687,3.3684,3.3629,0,0,0,0,0,0,3.3661,3.3661,3.3648,3.367,3.3673,3.3655,3.3698,3.3704,3.3705,3.3711,3.3728,3.3732,3.3753,3.3736,3.3735,3.3712,3.3762,3.3691,3.3688,3.3685,3.3633,3.3625,3.3618,0,0,0,0,0,3.366,3.3631,3.3647,3.3648,3.3658,3.3653,3.3655,3.3681,3.3703,3.369,3.3706,3.3731,3.3716,3.3734,3.3733,3.371,3.3693,3.3689,3.3685,3.3636,3.3626,3.3618,0,0,0,0,0,0,3.3603,3.3634,3.3653,3.363,3.3639,3.3662,3.3647,3.367,3.3671,3.3676,3.3707,3.3711,3.3689,3.3698,3.3718,3.3676,3.3708,3.3704,3.3671,3.3662,3.3655,3.3652,3.3761,0,0,0,0,0,3.3589,3.3584,3.361,3.3587,3.3591,3.3618,3.3617,3.3637,3.3647,3.365,3.3665,3.3672,3.3669,3.3666,3.3665,3.3635,3.3639,3.3619,3.3611,3.3605,3.36,3.3585,3.3576,3.3671,3.3671,3.3671,0,0,3.3557,3.3573,3.3568,3.3576,3.3586,3.3579,3.3621,3.3611,3.3606,3.3649,3.3633,3.3644,3.3655,3.3631,3.3622,3.3638,3.3576,3.36,3.3595,3.3594,3.358,3.3571,3.3563,3.3668,3.3669,3.3669,0,0,3.3496,3.3508,3.349,3.3499,3.3514,3.3532,3.3528,3.3548,3.3557,3.3543,3.3575,3.3569,3.3563,3.3569,3.3571,3.3514,3.3537,3.3513,3.3473,3.3458,3.345,3.3444,3.3423,3.3415,3.3509,3.3508,3.3508,0,3.3454,3.3447,3.3478,3.3467,3.347,3.351,3.3491,3.3498,3.351,3.351,3.3529,3.3523,3.3533,3.3511,3.3497,3.3498,3.3494,3.351,3.3449,3.3443,3.3437,3.3417,3.3409,3.3505,3.3506,3.3506,3.3506,0,3.3395,3.3389,3.3373,3.3385,3.3386,3.3371,3.34,3.3396,3.3417,3.3433,3.3417,3.3431,3.3433,3.343,3.3448,3.341,3.342,3.3444,3.3476,3.3424,3.3406,3.3399,3.3501,3.3502,3.3503,3.3504,0,0,3.3297,3.3329,3.3322,3.3328,3.3347,3.3343,3.333,3.3334,3.333,3.3338,3.3327,3.3321,3.3344,3.3346,3.3366,3.3353,3.3306,3.3378,3.3379,3.3363,3.3264,3.3246,3.3237,3.3322,3.3321,3.332,3.3263,0,3.324,3.3221,3.3249,3.3223,3.3217,3.3256,3.3245,3.3255,3.3269,3.3266,3.3283,3.3278,3.3308,3.331,3.3298,3.3314,3.3286,3.3319,3.3311,3.3311,3.3306,3.3228,3.3208,3.3154,3.3257,3.3255,3.3255,0,3.317,3.3175,3.3149,3.3171,3.317,3.3159,3.3165,3.3162,3.3174,3.3186,3.3189,3.3214,3.3202,3.3234,3.3218,3.3239,3.3238,3.3245,3.3244,3.3243,3.3278,3.3223,3.3137,3.3129,3.3244,3.3245,3.3245,0,3.31,3.3101,3.3086,3.309,3.3115,3.3107,3.3117,3.3131,3.3131,3.3136,3.3136,3.3139,3.314,3.3141,3.3165,3.3187,3.3145,3.318,3.3154,3.3153,3.3142,3.3142,3.3053,3.3143,3.3143,3.3143,3.3143,0,3.3032,3.3014,3.3055,3.3045,3.3027,3.3059,3.3039,3.3053,3.3065,3.3058,3.3091,3.3083,3.3117,3.3112,3.3131,3.3114,3.3115,3.3123,3.3128,3.3119,3.3118,3.3118,3.3122,3.3141,3.3141,3.3142,3.3142,0,3.295,3.2977,3.2963,3.2989,3.2995,3.2979,3.3001,3.2992,3.301,3.3001,3.3,3.3028,3.3025,3.305,3.305,3.3063,3.3037,3.3049,3.3033,3.3036,3.3008,3.301,3.2915,3.2904,3.3001,3.3,3.3,0,3.2905,3.2892,3.2917,3.2916,3.2924,3.2921,3.2922,3.2954,3.2954,3.2967,3.2957,3.2957,3.2958,3.2951,3.297,3.2971,3.2983,3.2949,3.2983,3.2975,3.2981,3.2981,3.298,3.2942,3.294,3.2939,3.2939,0,3.2821,3.2835,3.2836,3.2842,3.2843,3.2849,3.2857,3.2853,3.2887,3.2885,3.2883,3.2885,3.2887,3.2886,3.2891,3.2899,3.2924,3.2928,3.2922,3.2913,3.2904,3.2907,3.3013,3.293,3.2931,3.2931,3.2932,3.2932,3.2755,3.2746,3.2763,3.2763,3.2773,3.2779,3.2773,3.2791,3.279,3.2795,3.2814,3.2808,3.2821,3.283,3.2837,3.2832,3.2848,3.2839,3.2837,3.2834,3.2829,3.2906,3.2833,3.2834,3.2834,3.2834,3.2835,0,3.2672,3.2685,3.2685,3.2696,3.2696,3.2722,3.2732,3.273,3.2725,3.2736,3.2737,3.2735,3.2734,3.2754,3.2756,3.2748,3.276,3.2748,3.2748,3.2749,3.2815,3.282,3.2738,3.2738,3.2738,3.2738,3.2738,3.2738,3.2629,3.2615,3.2631,3.2622,3.2635,3.2631,3.2635,3.2641,3.265,3.2646,3.2646,3.266,3.2674,3.2677,3.2678,3.2683,3.2682,3.2666,3.2675,3.2735,3.2745,3.2754,3.2758,3.2665,3.2665,3.261,3.261,3.2609]}]]